Simultaneous Nadir Overpasses (SNOs) Predictions

Prediction of SNOs between TERRA and METOP-C Satellite Orbit:

Table of predicted SNOs for the next 14.0 days since TLE Epoch: 11/12/2022
Index Date (TERRA) Time (TERRA) Lat,Lon (TERRA) SZA (TERRA ) Date (METOP-C) Time (METOP-C) Lat,Lon (METOP-C) SZA (METOP-C ) Distance(km) Time Diff (sec)
1 11/12/2022 21:46:49 81.02,-109.43 100.99 11/12/2022 21:46:20 81.02,-109.33 100.99 1.70 29
2 11/12/2022 22:36:12 -81.04, 58.48 78.96 11/12/2022 22:37:01 -81.03, 58.35 78.96 2.23 49
3 11/15/2022 13:58:33 80.99, 7.20 101.61 11/15/2022 13:58:01 80.98, 7.03 101.58 2.94 32
4 11/15/2022 14:47:55 -81.03, 175.49 78.29 11/15/2022 14:48:40 -81.03, 175.43 78.28 1.05 45
5 11/18/2022 06:10:16 80.99, 124.36 102.27 11/18/2022 06:09:40 81.00, 124.44 102.26 1.38 36
6 11/18/2022 06:59:39 -81.02, -67.67 77.68 11/18/2022 07:00:20 -81.03, -67.55 77.65 2.33 41
7 11/20/2022 22:21:59 80.99,-118.64 102.85 11/20/2022 22:21:20 80.99,-118.58 102.85 1.16 39
8 11/20/2022 23:11:22 -81.01, 49.34 77.09 11/20/2022 23:12:00 -81.02, 49.40 77.07 1.18 38
9 11/23/2022 14:33:41 81.00, -1.46 103.42 11/23/2022 14:32:59 81.00, -1.28 103.43 3.07 42



Historial Predications of SNOs between TERRA and METOP-C
